HOME
ABOUT US
SERVICES
WEATHER INFORMATION
MEDIA CENTER
CARGO SERVICES
ENTRY PASS
TOURIST INFORMATION
CAREERS
AIRPORT MANAGEMENT TEAM
CONTACT US
 
  SUBMIT
 
 
WEATHER - TAF
The most recent TAF in our system was generated at the source at:

27/11/2014 18:02:04  UTC

TAF OMFJ 271700Z 2718/2824 29008KT 7000 NSC BECMG 2808/2810 31015G25KT SCT025 BKN040 PROB40 TEMPO 2810/2815 5000 BLDU BECMG 2815/2817 30006KT CAVOK

The information available here could be used for flight planning or other operational purposes. For further information on this aspect, please contact Fujairah International Airport Authority.

For further enquiries, please contact MET Section of Airport at :-
Email : met@fujairah-airport.com
Tel : +971 9 2055507
Fax : +971 9 2223149
Contat Us | Suggestions & Complaints | Links | Location Map | Employee Mail Copyright (c) 2013 Fujairah International Airport | All Rights Reserved.